Regional Weather Roundup
Issued by NWS

Home | Current Version | Previous Version | Graphics & Text | Print | Product List | Glossary On
Versions: 1 2 3 4 5 6 7 8 9 10 11 12 13 14 15 16 17 18 19 20 21 22 23 24 25 26 27 28 29 30 31 32 33 34 35 36 37 38 39 40 41 42 43 44 45 46 47 48 49 50
000
ASUS43 KLSX 230059
RWRMO

WEATHER SUMMARY FOR MISSOURI
NATIONAL WEATHER SERVICE SPRINGFIELD MO
800 PM CDT WED OCT 22 2014

NOTE: "FAIR" INDICATES FEW OR NO CLOUDS BELOW 12,000 FEET WITH NO
       SIGNIFICANT WEATHER AND/OR OBSTRUCTIONS TO VISIBILITY.
       CURRENT SKY AND/OR WEATHER CONDITIONS ARE NOT AVAILABLE FOR
       CHILLICOTHE AND FARMINGTON.

MOZ001>031-035>038-043-044-053-054-230200-
...NORTHERN AND WESTERN MISSOURI...

CITY           SKY/WX    TMP DP  RH WIND       PRES   REMARKS
KANSAS CTY INT PTCLDY    63  53  70 SE10      30.10S
KANSAS C DTWN  CLEAR     67  52  58 SE9       30.10R
LEE`S SUMMIT   CLEAR     64  51  62 SE7       30.12S
ST JOSEPH      CLEAR     65  53  65 SE10      30.09R
CHILLICOTHE      N/A     61  46  57 SE6       30.16R
KIRKSVILLE     CLEAR     51  43  74 SE6       30.19R

$$
MOZ066>068-077>081-088>096-101>105-230200-
...SOUTHWEST MISSOURI...

CITY           SKY/WX    TMP DP  RH WIND       PRES   REMARKS
SPRINGFIELD    CLEAR     56  47  71 SE6       30.17R
JOPLIN         CLEAR     63  55  75 SE6       30.13R

$$
MOZ032>034-039>042-045>050-055>058-069>072-230200-
...CENTRAL MISSOURI...

CITY           SKY/WX    TMP DP  RH WIND       PRES   REMARKS
COLUMBIA       CLEAR     54  42  64 E6        30.19R
JEFFERSON CITY CLEAR     55  42  61 SE6       30.18S
ROLLA          CLEAR     50  38  63 E6        30.18R
SEDALIA        CLEAR     58  47  66 SE9       30.17S
OSAGE BEACH    CLEAR     55  45  67 SE3       30.18R

$$
MOZ051-052-059>065-230200-
...EAST CENTRAL MISSOURI...

CITY           SKY/WX    TMP DP  RH WIND       PRES   REMARKS
ST LOUIS INTL  NOT AVBL
SPIRIT OF STL  CLEAR     47  42  83 CALM      30.21R
ST CHARLES     CLEAR     50  42  74 E7        30.21R

$$
MOZ072>076-082>087-097>100-106>115-230200-
...SOUTH CENTRAL AND SOUTHEAST MISSOURI...

CITY           SKY/WX    TMP DP  RH WIND       PRES   REMARKS
CAPE GIRARDEAU CLEAR     51  43  74 E5        30.21S
FARMINGTON     CLEAR     50  41  71 E3        30.23R
POPLAR BLUFF   CLEAR     51  45  79 CALM      30.19S
WEST PLAINS    CLEAR     48  42  80 CALM      30.20R

$$



USA.gov is the U.S. government's official web portal to all federal, state and local government web resources and services.